(78800) = 2003 AR66

Discovered at Socorro on 2003-01-07 by LINEAR.

Orbit

Orbit type: Main Belt

Note: WebGL enabled browser required.

epoch2024-03-31.0
epoch JD2460400.5
perihelion date2020-10-04.69872
perihelion JD2459127.19872
argument of perihelion (°)123.21061
ascending node (°)85.94341
inclination (°)24.87425
eccentricity0.1216095
perihelion distance (AU)2.7414352
Tisserand w.r.t. Jupiter3.1
ΔV w.r.t. Earth (km/sec)12.9
semimajor axis (AU)3.1209755
mean anomaly (°)227.61426
mean daily motion (°/day)0.17875920
aphelion distance (AU)3.501
period (years)5.51
P-vector [x]-0.79589314
P-vector [y]-0.59198451
P-vector [z]0.12691906
Q-vector [x]0.43647630
Q-vector [y]-0.70630930
Q-vector [z]-0.55732899
absolute magnitude13.74
phase slope0.15
uncertainty0
referenceMPEC 2024-D136
observations used2457
oppositions20
arc length (days)9443
first opposition used1998
last opposition used2024
residual rms (arc-secs)0.58
perturbers coarse indicatorM-v
perturbers precise indicator003Ek
first observation date used1998-04-22.0
last observation date used2024-02-28.0
computer nameMPCLINUX
JD of orbit computation2456819.473980
perihelion JD uncertainty (days)1.4799E-04
argument of perihelion uncertainty (°)2.7460E-05
ascending node uncertainty (°)1.2807E-05
inclination uncertainty (°)6.5303E-06
eccentricity uncertainty 6.6536E-08
perihelion distance uncertainty (AU)2.1815E-07
Minimum Orbit Intersection Distances (in AU)
for orbit epoch: 2460400.5, reference: E2024-DD6
Mercury2.3211
Venus2.05924
Earth1.79706
Mars1.31748
Jupiter1.72425
Saturn5.69821
Uranus15.6603
Neptune26.4682

Observations

2479 total observations over interval: 1998 04 22.28035 – 2024 02 28.253106
These data are available for download (format description).

Date (UT) J2000 RA J2000 Dec Magn Location Ref
1998 04 22.28035 10 52 10.98 +41 07 03.8 18.9 R 699 – Lowell Observatory-LONEOS MPS 82703
1998 04 22.29029 10 52 10.80 +41 06 58.5   699 – Lowell Observatory-LONEOS MPS 82703
1998 04 22.30022 10 52 10.88 +41 06 52.4   699 – Lowell Observatory-LONEOS MPS 82703
2001 08 22.46488 03 50 39.05 -01 01 44.5 20.7   644 – Palomar Mountain/NEAT MPS 73327
2001 08 22.47556 03 50 39.36 -01 01 45.7 20.4   644 – Palomar Mountain/NEAT MPS 73327
2001 08 22.48609 03 50 39.63 -01 01 46.3 20.9   644 – Palomar Mountain/NEAT MPS 73327
2001 09 18.46790 03 56 52.84 -01 59 24.0 20.0   644 – Palomar Mountain/NEAT MPS 73327
2001 09 18.48944 03 56 52.76 -01 59 28.1 19.5   644 – Palomar Mountain/NEAT MPS 73327
2001 09 18.51090 03 56 52.71 -01 59 31.8 19.9   644 – Palomar Mountain/NEAT MPS 73327
2001 09 23.40687 03 56 31.14 -02 13 16.2 20.1 R 699 – Lowell Observatory-LONEOS MPS 73327
2001 09 23.42629 03 56 31.02 -02 13 21.0   699 – Lowell Observatory-LONEOS MPS 73327
2001 09 23.44574 03 56 30.76 -02 13 23.9   699 – Lowell Observatory-LONEOS MPS 73327
2001 09 23.46519 03 56 30.63 -02 13 28.1   699 – Lowell Observatory-LONEOS MPS 73327
2001 11 17.26898 03 23 24.48 -03 39 32.5 18.6 R 699 – Lowell Observatory-LONEOS MPS 73327
2001 11 17.29406 03 23 23.09 -03 39 30.6   699 – Lowell Observatory-LONEOS MPS 73327
2001 11 17.31918 03 23 21.83 -03 39 28.2   699 – Lowell Observatory-LONEOS MPS 73327
2001 11 17.35318 03 23 19.95 -03 39 25.8   699 – Lowell Observatory-LONEOS MPS 73327
2001 12 07.21521 03 07 14.10 -02 40 25.2 19.0   704 – Lincoln Laboratory ETS, New Mexico MPS 73327
2001 12 07.23020 03 07 13.38 -02 40 22.2 19.6   704 – Lincoln Laboratory ETS, New Mexico MPS 73327
2001 12 07.26014 03 07 12.00 -02 40 13.9 19.3   704 – Lincoln Laboratory ETS, New Mexico MPS 73327
2001 12 07.27512 03 07 11.41 -02 40 09.7 19.0   704 – Lincoln Laboratory ETS, New Mexico MPS 73327
2002 01 08.187360 02 53 57.733 +00 42 36.25 19.68 V 645 – Apache Point-Sloan Digital Sky Survey MPS 80156
2002 01 08.190832 02 53 57.706 +00 42 37.80 20.32   645 – Apache Point-Sloan Digital Sky Survey MPS 80156
2002 01 09.119630 02 53 52.877 +00 49 53.77 19.84 V 645 – Apache Point-Sloan Digital Sky Survey MPS 80156
2002 01 09.123102 02 53 52.857 +00 49 55.42 20.58   645 – Apache Point-Sloan Digital Sky Survey MPS 80156
2002 11 12.41365 08 07 54.01 +28 13 14.4 19.3   704 – Lincoln Laboratory ETS, New Mexico MPS 81533
2002 11 12.43110 08 07 54.29 +28 13 21.5 19.3   704 – Lincoln Laboratory ETS, New Mexico MPS 81533
2002 11 12.44837 08 07 54.59 +28 13 29.4 19.3   704 – Lincoln Laboratory ETS, New Mexico MPS 81533
2002 11 12.48291 08 07 55.18 +28 13 42.6 19.4   704 – Lincoln Laboratory ETS, New Mexico MPS 81533
2002 11 28.31864 08 10 08.49 +30 15 02.6 18.6 R 699 – Lowell Observatory-LONEOS MPS 71830
2002 11 28.34028 08 10 08.40 +30 15 14.3   699 – Lowell Observatory-LONEOS MPS 71830
2002 11 28.36203 08 10 08.24 +30 15 25.8   699 – Lowell Observatory-LONEOS MPS 71830
2002 11 28.38366 08 10 08.14 +30 15 37.2   699 – Lowell Observatory-LONEOS MPS 71831
2002 12 05.36945 08 09 04.10 +31 18 41.5 18.8   704 – Lincoln Laboratory ETS, New Mexico MPS 71831
2002 12 05.38486 08 09 03.87 +31 18 50.9 19.3   704 – Lincoln Laboratory ETS, New Mexico MPS 71831
2002 12 05.40004 08 09 03.64 +31 18 59.2 19.0   704 – Lincoln Laboratory ETS, New Mexico MPS 71831
2002 12 05.41527 08 09 03.35 +31 19 08.3 18.9   704 – Lincoln Laboratory ETS, New Mexico MPS 71831
2002 12 05.43049 08 09 03.17 +31 19 16.7 19.2   704 – Lincoln Laboratory ETS, New Mexico MPS 71831
2002 12 15.35931 08 05 14.68 +32 56 30.9 18.4   704 – Lincoln Laboratory ETS, New Mexico MPS 71831
2002 12 15.37425 08 05 14.11 +32 56 38.6 18.9   704 – Lincoln Laboratory ETS, New Mexico MPS 71831
2002 12 15.38882 08 05 13.71 +32 56 48.2 19.7   704 – Lincoln Laboratory ETS, New Mexico MPS 71831
2002 12 15.40354 08 05 13.03 +32 56 57.8 18.9   704 – Lincoln Laboratory ETS, New Mexico MPS 71831
2002 12 15.41842 08 05 12.59 +32 57 05.8 18.7   704 – Lincoln Laboratory ETS, New Mexico MPS 71831
2003 01 07.33836 07 47 10.85 +36 46 04.1 18.7   704 – Lincoln Laboratory ETS, New Mexico MPS 71831
2003 01 07.35353 07 47 09.98 +36 46 12.6 19.3   704 – Lincoln Laboratory ETS, New Mexico MPS 71831
2003 01 07.36876 07 47 08.98 +36 46 20.2 18.8   704 – Lincoln Laboratory ETS, New Mexico MPS 71831
2003 01 10.29947 07 44 10.70 +37 12 43.3 17.6   704 – Lincoln Laboratory ETS, New Mexico MPS 71831
2003 01 10.31570 07 44 09.67 +37 12 52.0 17.6   704 – Lincoln Laboratory ETS, New Mexico MPS 71831
2003 01 10.33152 07 44 08.70 +37 13 00.5 17.9   704 – Lincoln Laboratory ETS, New Mexico MPS 71831
2003 01 10.34759 07 44 07.64 +37 13 09.1 18.0   704 – Lincoln Laboratory ETS, New Mexico MPS 71831
2003 01 10.36331 07 44 06.69 +37 13 17.2 17.7   704 – Lincoln Laboratory ETS, New Mexico MPS 71831
2003 01 13.30413 07 41 03.42 +37 38 26.6 18.8   704 – Lincoln Laboratory ETS, New Mexico MPS 71831
2003 01 13.31905 07 41 02.47 +37 38 34.2 19.1   704 – Lincoln Laboratory ETS, New Mexico MPS 71831
2003 01 13.33429 07 41 01.45 +37 38 41.4 19.0   704 – Lincoln Laboratory ETS, New Mexico MPS 71831
2003 01 13.34934 07 41 00.53 +37 38 48.9 18.9   704 – Lincoln Laboratory ETS, New Mexico MPS 71831
2003 01 13.36423 07 40 59.55 +37 38 56.4 18.7   704 – Lincoln Laboratory ETS, New Mexico MPS 71831
2003 01 31.23302 07 22 39.73 +39 37 47.4 18.0 R 699 – Lowell Observatory-LONEOS MPS 71831
2003 01 31.25083 07 22 38.75 +39 37 52.5   699 – Lowell Observatory-LONEOS MPS 71831
2003 01 31.26874 07 22 37.69 +39 37 57.8   699 – Lowell Observatory-LONEOS MPS 71831
2003 01 31.28666 07 22 36.61 +39 38 02.7   699 – Lowell Observatory-LONEOS MPS 71831
2003 02 06.17778 07 17 24.88 +40 03 07.1 17.9 R 699 – Lowell Observatory-LONEOS MPS 73327
2003 02 06.19402 07 17 24.05 +40 03 10.4   699 – Lowell Observatory-LONEOS MPS 73327
2003 02 06.21024 07 17 23.18 +40 03 14.1   699 – Lowell Observatory-LONEOS MPS 73327
2003 02 06.22648 07 17 22.39 +40 03 17.9   699 – Lowell Observatory-LONEOS MPS 73327
2003 03 24.12267 07 09 58.73 +40 21 14.0 18.8   704 – Lincoln Laboratory ETS, New Mexico MPS 76169
2003 03 24.14771 07 09 59.44 +40 21 10.7 19.0   704 – Lincoln Laboratory ETS, New Mexico MPS 76169
2003 03 24.16076 07 09 59.78 +40 21 09.5 19.0   704 – Lincoln Laboratory ETS, New Mexico MPS 76169
2003 03 24.17385 07 10 00.18 +40 21 08.6 19.6   704 – Lincoln Laboratory ETS, New Mexico MPS 76169
2003 03 24.18645 07 10 00.56 +40 21 07.2 19.1   704 – Lincoln Laboratory ETS, New Mexico MPS 76169
2003 04 04.14095 07 17 10.47 +39 58 09.0 19.3   704 – Lincoln Laboratory ETS, New Mexico MPS 76169
2003 04 04.15348 07 17 11.00 +39 58 06.6 19.3   704 – Lincoln Laboratory ETS, New Mexico MPS 76169
2003 04 04.16531 07 17 11.49 +39 58 05.8 19.2   704 – Lincoln Laboratory ETS, New Mexico MPS 76169
2003 04 04.16542 07 17 11.55 +39 58 05.5 19.1   704 – Lincoln Laboratory ETS, New Mexico MPS 76169
2003 04 04.17729 07 17 12.08 +39 58 03.8 19.5   704 – Lincoln Laboratory ETS, New Mexico MPS 76169
2003 04 04.17741 07 17 12.11 +39 58 03.6 19.1   704 – Lincoln Laboratory ETS, New Mexico MPS 76169
2003 12 20.47690 14 08 44.44 +10 35 01.9 18.6   704 – Lincoln Laboratory ETS, New Mexico MPS 94694
2003 12 20.49014 14 08 45.60 +10 34 59.7 19.3   704 – Lincoln Laboratory ETS, New Mexico MPS 94694
2003 12 20.50378 14 08 46.75 +10 34 55.2 19.0   704 – Lincoln Laboratory ETS, New Mexico MPS 94694
2003 12 20.51702 14 08 47.93 +10 34 52.7 19.2   704 – Lincoln Laboratory ETS, New Mexico MPS 94694
2004 01 02.45937 14 26 46.62 +09 54 48.2 18.7   704 – Lincoln Laboratory ETS, New Mexico MPS 96363
2004 01 02.47156 14 26 47.52 +09 54 47.2 19.6   704 – Lincoln Laboratory ETS, New Mexico MPS 96363
2004 01 02.48383 14 26 48.53 +09 54 45.9 19.0   704 – Lincoln Laboratory ETS, New Mexico MPS 96363
2004 01 29.47096 14 58 44.59 +09 36 04.9 19.2   704 – Lincoln Laboratory ETS, New Mexico MPS 97816
2004 01 29.48318 14 58 45.39 +09 36 05.8 19.5   704 – Lincoln Laboratory ETS, New Mexico MPS 97816
2004 01 29.49543 14 58 46.11 +09 36 06.5 19.5   704 – Lincoln Laboratory ETS, New Mexico MPS 97816
2004 02 17.40959 15 14 39.14 +10 15 45.7 18.4   704 – Lincoln Laboratory ETS, New Mexico MPS 99921
